Weather History for KGAF - May, 2013

Change the Weather History Date:

Tuesday, May 28, 2013

  Actual Average (KGFK) Record (KGFK)
Temperature  
Mean Temperature 63 °F 59 °F  
Max Temperature 71 °F 72 °F 95 °F (2006)
Min Temperature 55 °F 46 °F 25 °F (1947)
Degree Days  
Heating Degree Days 2 7  
Month to date heating degree days 314  
Since 1 July heating degree days 9392  
Cooling Degree Days 0 1  
Month to date cooling degree days 13  
Year to date cooling degree days 14  
Growing Degree Days 13 (Base 50)    
Moisture  
Dew Point 56 °F    
Average Humidity 84    
Maximum Humidity 100    
Minimum Humidity 57    
Precipitation  
Precipitation 0.00 in 0.10 in 1.05 in (1923)
Month to date precipitation 2.37  
Year to date precipitation 5.41  
Snow  
Snow 0.00 in 0.00 in - ()
Month to date snowfall 0.1  
Since 1 July snowfall 47.4  
Snow Depth -    
Sea Level Pressure  
Sea Level Pressure 29.65 in    
Wind  
Wind Speed 12 mph (South)    
Max Wind Speed 20 mph    
Max Gust Speed 26 mph    
Visibility 8 miles    
Events Rain    
T = Trace of Precipitation, MM = Missing Value Source: NWS Daily Summary

Daily Weather History Graph

Daily Weather History Graph

Search for Another Location

Airport or City:

Trip Planner

Search our weather history database for the weather conditions in past years. The results will help you decide how hot, cold, wet, or windy it might be!

Date:

Astronomy

May. 28, 2013 Rise Set
Actual Time 5:35 AM CDT 9:19 PM CDT
Civil Twilight 4:55 AM CDT 9:58 PM CDT
Nautical Twilight 4:01 AM CDT 10:53 PM CDT
Astronomical Twilight 2:43 AM CDT 12:12 AM CDT
Moon No Moon Rise 9:33 AM CDT (5/28)
Length of Visible Light 17h 03m
Length of Day
15h 43m
Waning Gibbous, 82% of the Moon is Illuminated
May 28
Waning Gibbous
May 31
Last Quarter
Jun 8
New
Jun 16
First Quarter
Jun 23
Full

Hourly Weather History & Observations

Time (CDT) Temp. Dew Point Humidity Pressure Visibility Wind Dir Wind Speed Gust Speed Precip Events Conditions
12:15 AM 59.0 °F 55.4 °F 88% 29.75 in 10.0 mi SSE 12.7 mph - N/A   Overcast
12:35 AM 59.0 °F 55.4 °F 88% 29.76 in 10.0 mi SSE 12.7 mph - N/A   Overcast
12:55 AM 59.0 °F 55.4 °F 88% 29.76 in 10.0 mi SSE 11.5 mph - N/A   Mostly Cloudy
1:15 AM 59.0 °F 53.6 °F 82% 29.75 in 10.0 mi SSE 13.8 mph - N/A   Mostly Cloudy
1:35 AM 59.0 °F 53.6 °F 82% 29.74 in 10.0 mi SSE 12.7 mph - N/A   Mostly Cloudy
1:55 AM 59.0 °F 53.6 °F 82% 29.75 in 10.0 mi South 10.4 mph - N/A   Mostly Cloudy
2:15 AM 59.0 °F 53.6 °F 82% 29.74 in 10.0 mi SSE 11.5 mph - N/A   Mostly Cloudy
2:35 AM 57.2 °F 53.6 °F 88% 29.72 in 10.0 mi SSE 12.7 mph - N/A   Overcast
2:55 AM 59.0 °F 53.6 °F 82% 29.72 in 10.0 mi South 13.8 mph 18.4 mph N/A   Overcast
3:15 AM 57.2 °F 55.4 °F 94% 29.71 in 10.0 mi SSE 10.4 mph - N/A   Overcast
3:35 AM 57.2 °F 55.4 °F 94% 29.70 in 10.0 mi SSE 9.2 mph - N/A   Overcast
3:55 AM 57.2 °F 55.4 °F 94% 29.69 in 10.0 mi SSE 9.2 mph - N/A   Mostly Cloudy
4:15 AM 57.2 °F 55.4 °F 94% 29.69 in 9.0 mi SE 11.5 mph - N/A   Mostly Cloudy
4:35 AM 57.2 °F 55.4 °F 94% 29.68 in 9.0 mi SE 10.4 mph - N/A   Scattered Clouds
4:55 AM 57.2 °F 55.4 °F 94% 29.67 in 8.0 mi SE 8.1 mph - N/A   Overcast
5:15 AM 57.2 °F 55.4 °F 94% 29.69 in 8.0 mi SSW 4.6 mph - N/A   Overcast
5:35 AM 57.2 °F 55.4 °F 94% 29.69 in 9.0 mi SSE 6.9 mph - N/A   Overcast
5:55 AM 57.2 °F 55.4 °F 94% 29.70 in 7.0 mi SE 5.8 mph - N/A   Overcast
6:15 AM 57.2 °F 55.4 °F 94% 29.70 in 7.0 mi South 8.1 mph - N/A   Overcast
6:35 AM 57.2 °F 55.4 °F 94% 29.71 in 6.0 mi South 8.1 mph - N/A   Overcast
6:55 AM 57.2 °F 55.4 °F 94% 29.71 in 6.0 mi South 12.7 mph 16.1 mph N/A   Overcast
7:15 AM 57.2 °F 55.4 °F 94% 29.70 in 5.0 mi SSE 10.4 mph - N/A   Overcast
7:35 AM 57.2 °F 55.4 °F 94% 29.70 in 5.0 mi South 9.2 mph - N/A   Overcast
7:55 AM 57.2 °F 55.4 °F 94% 29.69 in 5.0 mi SSE 10.4 mph - N/A   Overcast
8:15 AM 55.4 °F 55.4 °F 100% 29.68 in 2.5 mi SSE 9.2 mph - N/A   Overcast
8:35 AM 55.4 °F 55.4 °F 100% 29.68 in 3.0 mi SSE 9.2 mph - N/A   Overcast
8:55 AM 57.2 °F 57.2 °F 100% 29.67 in 3.0 mi SE 11.5 mph - N/A   Mostly Cloudy
9:15 AM 57.2 °F 57.2 °F 100% 29.67 in 3.0 mi SSE 10.4 mph - N/A Rain Light Rain
9:35 AM 57.2 °F 57.2 °F 100% 29.66 in 3.0 mi SE 13.8 mph - N/A Rain Light Rain
9:55 AM 57.2 °F 57.2 °F 100% 29.67 in 5.0 mi SSE 12.7 mph - N/A   Overcast
10:15 AM 57.2 °F 57.2 °F 100% 29.66 in 5.0 mi SSE 12.7 mph - N/A   Overcast
10:35 AM 57.2 °F 57.2 °F 100% 29.66 in 5.0 mi SSE 16.1 mph - N/A   Overcast
10:55 AM 59.0 °F 57.2 °F 94% 29.65 in 7.0 mi SSE 17.3 mph - N/A   Overcast
11:15 AM 59.0 °F 57.2 °F 94% 29.65 in 8.0 mi SSE 17.3 mph 21.9 mph N/A   Mostly Cloudy
11:35 AM 59.0 °F 57.2 °F 94% 29.65 in 8.0 mi SSE 16.1 mph - N/A   Overcast
11:55 AM 59.0 °F 57.2 °F 94% 29.65 in 6.0 mi SSE 15.0 mph 20.7 mph N/A   Overcast
12:15 PM 59.0 °F 57.2 °F 94% 29.65 in 5.0 mi SSE 16.1 mph - N/A Rain Light Rain
12:35 PM 59.0 °F 57.2 °F 94% 29.65 in 5.0 mi South 15.0 mph 20.7 mph N/A   Overcast
12:55 PM 59.0 °F 57.2 °F 94% 29.65 in 7.0 mi South 13.8 mph - N/A   Overcast
1:15 PM 59.0 °F 57.2 °F 94% 29.65 in 7.0 mi South 15.0 mph 19.6 mph N/A   Overcast
1:35 PM 60.8 °F 57.2 °F 88% 29.65 in 7.0 mi South 13.8 mph - N/A   Overcast
1:55 PM 60.8 °F 57.2 °F 88% 29.65 in 9.0 mi South 17.3 mph - N/A   Overcast
2:15 PM 62.6 °F 57.2 °F 82% 29.64 in 8.0 mi South 15.0 mph 19.6 mph N/A   Overcast
2:35 PM 62.6 °F 57.2 °F 82% 29.63 in 9.0 mi South 17.3 mph 21.9 mph N/A   Overcast
2:55 PM 64.4 °F 59.0 °F 83% 29.63 in 9.0 mi South 16.1 mph - N/A   Overcast
3:15 PM 66.2 °F 59.0 °F 78% 29.63 in 10.0 mi SSE 19.6 mph - N/A   Mostly Cloudy
3:35 PM 66.2 °F 59.0 °F 78% 29.62 in 10.0 mi SSE 18.4 mph 21.9 mph N/A   Mostly Cloudy
3:55 PM 68.0 °F 57.2 °F 68% 29.61 in 10.0 mi SSE 19.6 mph 24.2 mph N/A   Scattered Clouds
4:15 PM 69.8 °F 59.0 °F 68% 29.60 in 10.0 mi SSE 18.4 mph 24.2 mph N/A   Partly Cloudy
4:35 PM 69.8 °F 59.0 °F 68% 29.60 in 10.0 mi South 19.6 mph 24.2 mph N/A   Scattered Clouds
4:55 PM 68.0 °F 57.2 °F 68% 29.59 in 10.0 mi South 17.3 mph 26.5 mph N/A   Partly Cloudy
5:15 PM 68.0 °F 57.2 °F 68% 29.59 in 10.0 mi South 18.4 mph 21.9 mph N/A   Clear
5:35 PM 68.0 °F 57.2 °F 68% 29.59 in 10.0 mi SSE 16.1 mph - N/A   Scattered Clouds
5:55 PM 68.0 °F 57.2 °F 68% 29.58 in 10.0 mi South 17.3 mph - N/A   Mostly Cloudy
6:15 PM 71.6 °F 57.2 °F 60% 29.58 in 10.0 mi South 18.4 mph - N/A   Mostly Cloudy
6:35 PM 69.8 °F 59.0 °F 68% 29.58 in 10.0 mi South 17.3 mph - N/A   Mostly Cloudy
6:55 PM 69.8 °F 59.0 °F 68% 29.58 in 10.0 mi South 15.0 mph 23.0 mph N/A   Mostly Cloudy
7:15 PM 71.6 °F 57.2 °F 60% 29.58 in 10.0 mi South 10.4 mph 26.5 mph N/A   Mostly Cloudy
7:35 PM 71.6 °F 55.4 °F 57% 29.58 in 10.0 mi West 12.7 mph - N/A   Mostly Cloudy
7:55 PM 71.6 °F 55.4 °F 57% 29.58 in 10.0 mi WSW 15.0 mph - N/A   Mostly Cloudy
8:15 PM 68.0 °F 55.4 °F 64% 29.58 in 10.0 mi WSW 10.4 mph - N/A   Partly Cloudy
8:35 PM 68.0 °F 55.4 °F 64% 29.58 in 10.0 mi SW 6.9 mph - N/A   Partly Cloudy
8:55 PM 66.2 °F 55.4 °F 68% 29.58 in 10.0 mi SW 6.9 mph - N/A   Scattered Clouds
9:15 PM 64.4 °F 55.4 °F 73% 29.58 in 10.0 mi SSW 8.1 mph - N/A   Scattered Clouds
9:35 PM 62.6 °F 55.4 °F 77% 29.58 in 10.0 mi SW 8.1 mph - N/A   Clear
9:55 PM 62.6 °F 55.4 °F 77% 29.59 in 10.0 mi SW 6.9 mph - N/A   Clear
10:15 PM 60.8 °F 55.4 °F 82% 29.59 in 10.0 mi WSW 8.1 mph - N/A   Clear
10:35 PM 60.8 °F 55.4 °F 82% 29.60 in 10.0 mi WSW 8.1 mph - N/A   Clear
10:55 PM 62.6 °F 55.4 °F 77% 29.60 in 10.0 mi SW 5.8 mph - N/A   Clear
11:15 PM 59.0 °F 55.4 °F 88% 29.60 in 10.0 mi SW 6.9 mph - N/A   Clear
11:35 PM 59.0 °F 53.6 °F 82% 29.59 in 10.0 mi WSW 6.9 mph - N/A   Clear
11:55 PM 59.0 °F 55.4 °F 88% 29.60 in 10.0 mi WSW 8.1 mph - N/A   Clear